Regional Weather Roundup
Issued by NWS

Home | Current Version | Previous Version | Graphics & Text | Print | Product List | Glossary On
Versions: 1 2 3 4 5 6 7 8 9 10 11 12 13 14 15 16 17 18 19 20 21 22 23 24 25 26 27 28 29 30 31 32 33 34 35 36 37 38 39 40 41 42 43 44 45 46 47 48 49 50
793
ASUS43 KTOP 311708
RWRKS

WEATHER ROUNDUP FOR KANSAS
NATIONAL WEATHER SERVICE GOODLAND KS
1200 PM CDT WED AUG 31 2016

NOTE:  "FAIR" INDICATES FEW OR NO CLOUDS BELOW 12,000 FEET WITH NO
SIGNIFICANT WEATHER AND/OR OBSTRUCTIONS TO VISIBILITY.

KSZ001>006-013>018-027>032-041>047-311800-
NORTHWEST KANSAS

CITY           SKY/WX    TMP DP  RH WIND       PRES   REMARKS
GOODLAND       PTSUNNY   72  63  73 SE5       30.25F
HAYS           PTSUNNY   73  63  68 SE6       30.20S
HILL CITY      CLOUDY    75  67  76 NE3       30.21F
RUSSELL        CLOUDY    75  68  78 E8        30.18F
$$

KSZ061>065-074>080-084>089-311800-
SOUTHWEST KANSAS

CITY           SKY/WX    TMP DP  RH WIND       PRES   REMARKS
DODGE CITY     CLOUDY    73  67  81 NE9       30.22R
ELKHART          N/A     70  61  73 S5          N/A
GARDEN CITY    PTSUNNY   74  65  73 NE9       30.22S
GREAT BEND     CLOUDY    73  63  68 NE10      30.19S
LIBERAL        CLOUDY    72  66  83 CALM      30.23S
PRATT          CLOUDY    71  65  82 NE7       30.19S
$$

KSZ066>073-081>083-090>101-311800-
SOUTHEAST KANSAS

CITY           SKY/WX    TMP DP  RH WIND       PRES   REMARKS
CHANUTE        PTSUNNY   80  72  76 N6        30.11F
COFFEYVILLE    CLOUDY    79  70  74 SW13      30.10S
HUTCHINSON     PTSUNNY   71  68  90 SE3       30.16F
MEDICINE LODGE   N/A     76  67  73 NE8       30.15F
NEWTON         LGT RAIN  69  68  96 E5        30.18F
PARSONS        CLOUDY    84  70  62 VRB5      30.10F
WICHITA INTL   CLOUDY    74  71  91 N10       30.16S
WICHITA JABRA  LGT RAIN  70  70 100 N10       30.17S
WICHITA MCCONL CLOUDY    73  70  88 NE12      30.16S
WINFIELD       CLOUDY    76  70  82 N7        30.14S
$$

KSZ007>012-019>026-033>040-048>060-102>105-311800-
NORTHEAST KANSAS

CITY           SKY/WX    TMP DP  RH WIND       PRES   REMARKS
CONCORDIA      PTSUNNY   73  69  87 E8        30.19F
EMPORIA        CLOUDY    74  70  87 NE8       30.15F
LAWRENCE       LGT RAIN  75  70  84 N6        30.14F
MANHATTAN      LGT RAIN  74  70  87 E5        30.17S
MARYSVILLE     CLOUDY    73  70  88 E6        30.19S
OLATHE IND     CLOUDY    75  72  90 N5        30.15S
OLATHE EXE     CLOUDY    75  71  87 NE6       30.14F
SALINA         CLOUDY    75  70  84 E7        30.17F
TOPEKA BILLARD LGT RAIN  75  72  90 NE5       30.15S
TOPEKA FORBES  LGT RAIN  74  71  91 NE3       30.15F
$$




USA.gov is the U.S. government's official web portal to all federal, state and local government web resources and services.